Theta_e
318 318 316 314 312 312 312 312 311 308 302 302 301 299 299 300 301 304 308 309 308 311 315 313 313 313 314 316 314 316 323 323 323 325 327 327 330 328 327 330 331 331 332 331 329 330 333 333 339 340 338 337 338 339
318 318 317 315 313 312 311 311 311 308 302 302 301 299 298 300 300 309 310 309 309 307 312 312 311 312 311 314 313 319 318 322 324 321 322 324 330 326 328 331 326 331 327 328 334 333 329 330 329 329 331 332 334 338
318 316 317 316 314 312 311 311 311 309 303 302 301 299 298 299 300 306 309 309 311 314 312 311 311 312 313 312 314 315 320 320 322 322 321 321 326 325 327 327 327 329 330 330 329 330 327 328 327 325 327 331 334 338
316 317 316 316 314 312 311 311 310 310 304 302 301 299 299 299 300 302 311 311 313 314 314 317 314 314 313 314 314 316 316 317 317 319 322 319 322 326 325 323 324 326 328 327 330 329 326 327 325 325 326 327 329 334
314 316 317 315 313 311 310 310 310 310 304 301 302 300 299 299 300 302 310 311 312 313 314 317 317 316 315 314 314 314 315 315 316 318 317 316 322 320 320 319 326 326 325 323 324 327 325 325 327 326 329 328 327 327
311 315 316 315 312 311 310 310 310 310 303 301 302 301 299 299 300 307 311 309 310 311 313 313 317 316 315 316 315 315 315 316 317 318 316 317 323 321 319 321 327 328 327 327 326 326 327 328 328 330 328 327 326 327
310 313 315 314 313 311 310 310 310 310 301 301 302 301 299 299 302 312 313 315 311 304 315 314 314 316 317 316 315 316 316 316 316 315 316 316 316 321 316 319 322 328 323 325 328 325 323 323 324 330 329 324 325 326
309 311 313 312 311 310 309 310 309 307 301 301 302 301 299 299 304 306 308 307 304 310 312 310 312 316 317 316 316 316 316 316 317 316 315 314 315 319 316 318 325 324 325 325 324 324 323 324 324 329 332 331 331 329
308 310 310 310 310 309 309 309 308 302 301 302 302 299 299 301 310 312 308 305 305 312 314 313 310 316 317 317 316 317 316 314 317 314 314 315 310 312 314 319 321 326 327 326 326 324 325 325 326 329 330 329 329 329
304 308 308 309 309 309 309 309 305 300 302 302 299 300 303 308 313 304 302 304 305 309 311 311 315 312 318 319 315 317 317 312 315 314 318 312 312 321 321 321 322 321 319 319 320 323 325 326 328 327 327 328 328 330
304 304 308 308 308 308 309 309 302 301 302 299 304 310 311 307 310 312 314 312 311 311 311 311 311 309 314 316 315 319 316 313 315 313 317 318 321 322 322 322 322 321 321 321 321 322 323 327 326 325 324 324 327 328
304 306 306 309 306 308 309 307 301 302 299 305 309 308 305 308 313 313 311 312 311 312 313 311 311 311 315 317 319 319 317 315 316 318 317 319 318 321 321 321 322 321 321 320 320 320 321 322 325 325 325 325 324 323
305 307 307 308 307 307 308 308 305 300 305 308 309 309 309 311 308 312 312 312 311 313 315 313 311 314 316 316 316 313 316 316 318 318 319 318 320 319 318 317 317 321 321 323 322 322 323 323 323 324 324 324 324 325
305 307 307 308 306 306 307 306 301 302 307 309 310 305 307 309 309 309 310 310 313 313 315 314 315 314 315 313 313 316 314 316 318 320 320 316 320 321 320 321 319 321 322 322 322 323 322 322 322 321 321 322 323 324
302 302 304 304 304 305 304 304 301 304 308 310 310 306 308 310 310 310 311 315 315 315 314 316 316 317 313 315 314 315 318 319 319 318 317 321 320 321 321 321 321 321 321 321 321 321 322 322 322 321 321 321 321 321
300 300 300 300 300 301 301 302 303 307 308 309 311 311 309 309 310 312 315 315 316 317 318 317 316 315 316 315 317 317 317 319 317 317 318 317 320 319 318 319 318 319 321 320 319 319 320 321 321 321 321 320 321 321
300 300 300 300 300 300 301 304 307 308 308 309 310 310 311 315 316 317 316 317 316 318 316 316 316 317 318 316 318 316 318 316 317 316 316 316 318 320 319 320 320 320 319 319 320 319 319 320 321 320 320 319 320 319
300 300 300 300 300 301 303 304 305 306 308 308 310 313 316 316 316 315 315 315 317 319 318 317 318 316 317 319 319 316 316 317 317 315 314 319 320 319 320 319 318 318 318 319 320 320 320 321 320 318 318 318 318 317
300 300 300 301 302 302 304 304 306 306 307 307 310 312 315 315 315 316 316 316 316 318 317 318 316 317 315 316 317 316 315 316 318 319 318 319 320 320 320 320 318 318 320 319 319 319 319 318 318 318 317 317 317 317
302 301 302 303 304 306 306 305 307 308 310 311 312 313 315 315 315 315 314 315 316 316 316 316 315 317 316 317 316 318 319 320 319 320 319 319 320 319 318 316 317 318 319 319 319 319 318 317 317 316 317 316 316 317
303 303 304 305 306 307 308 307 307 308 311 313 312 312 314 314 314 315 315 315 315 315 317 318 317 315 316 319 319 318 319 318 318 318 318 319 318 316 317 317 317 317 318 318 317 318 318 317 317 317 316 315 314 314
302 303 305 305 307 308 309 310 310 310 311 313 313 314 314 313 314 314 315 315 316 316 318 318 318 317 318 319 319 319 318 317 316 316 315 315 316 317 317 317 317 317 318 318 318 318 317 318 317 315 314 314 314 315
302 304 305 306 307 308 308 309 311 312 312 314 313 314 314 314 314 315 315 315 315 317 317 317 319 319 318 317 317 317 317 316 317 318 317 315 317 316 317 317 316 316 316 315 314 314 313 313 313 314 316 316 316 316
304 305 307 308 308 307 310 311 311 312 313 313 313 315 314 314 315 315 313 315 317 317 317 317 317 316 317 318 318 317 317 316 316 316 317 316 316 316 316 315 316 315 313 313 313 314 315 315 315 315 315 314 314 314
305 305 307 306 308 310 308 308 308 309 312 312 313 313 314 315 312 312 312 316 317 317 318 316 316 316 318 317 317 316 315 315 316 316 316 316 316 315 315 315 315 315 315 316 315 314 314 316 315 314 313 313 313 313
303 307 308 308 307 308 306 309 309 310 313 314 314 315 314 313 314 309 315 317 317 317 317 316 316 315 317 317 316 316 316 315 315 315 316 316 316 317 316 315 315 315 315 315 315 314 314 314 314 314 313 314 314 314
305 310 308 310 308 308 307 309 311 313 314 315 312 312 313 314 314 315 316 316 315 315 316 317 317 316 316 316 315 315 315 315 316 317 316 316 316 316 315 315 314 314 314 314 314 314 314 314 314 315 315 314 314 313
309 309 310 310 310 311 312 312 313 314 313 315 314 313 313 316 315 316 316 317 317 317 317 316 316 317 315 315 316 316 316 315 315 315 315 315 315 315 315 315 315 315 313 314 315 314 314 313 315 315 314 313 314 314
311 311 309 310 310 311 311 312 314 315 316 316 315 314 316 316 316 315 316 316 315 317 317 316 316 315 315 315 316 316 315 316 317 317 316 316 316 316 316 315 316 315 312 311 312 313 312 313 313 312 312 312 313 314
311 310 311 311 310 310 314 314 314 315 315 315 315 314 315 315 315 315 315 315 316 316 315 315 316 316 315 314 315 317 317 317 317 317 316 315 316 316 316 315 315 315 313 312 314 314 314 314 313 313 314 314 314 314
309 311 311 310 311 311 311 313 314 315 315 315 314 315 315 316 316 315 315 314 316 316 316 317 317 316 315 314 315 317 317 317 316 316 316 316 316 316 315 315 315 314 315 314 314 314 314 314 314 314 313 313 313 314
310 311 311 312 313 315 314 314 314 315 315 315 314 314 315 316 316 316 317 317 317 317 317 318 316 316 316 317 317 316 317 315 316 316 316 315 315 315 315 315 314 314 314 314 314 315 314 315 314 313 313 312 312 311
313 312 312 314 316 316 316 316 317 317 317 317 316 316 317 317 317 315 314 315 316 316 316 316 316 317 317 317 316 316 316 316 316 315 313 314 309 310 312 313 314 313 314 314 314 314 314 314 313 312 312 311 311 311
Wind_Speed
15 19 18 20 21 21 23 22 19 15 12 9 9 7 7 6 3 4 6 1 2 3 5 5 7 7 6 6 3 8 4 9 6 4 2 3 2 3 4 3 4 2 2 2 1 2 4 30 8 7 7 20 23 11
16 15 20 22 23 23 23 23 20 16 12 10 9 8 6 6 3 5 8 3 7 8 5 2 2 2 2 3 4 7 3 1 2 3 2 1 2 3 2 2 5 3 3 2 3 3 4 22 21 15 11 13 24 16
17 17 19 23 24 24 24 25 22 18 13 11 9 8 6 6 5 6 3 1 4 2 7 9 5 4 4 2 2 3 3 2 1 3 2 3 1 3 0 3 1 2 2 3 3 2 5 9 4 13 11 13 15 13
17 20 18 22 25 26 24 26 23 19 14 12 10 8 7 6 6 6 5 4 4 1 2 2 5 5 4 5 3 4 5 0 3 4 2 2 1 6 2 2 3 1 3 1 1 4 7 5 18 17 13 9 9 15
14 18 21 19 25 26 25 26 23 19 14 13 10 8 8 7 7 8 7 4 3 1 2 5 5 6 4 5 5 4 2 2 2 1 0 2 2 2 3 3 2 2 4 3 3 2 2 9 17 16 16 19 13 6
12 15 18 22 26 26 26 26 22 19 15 14 11 8 7 7 7 10 5 6 5 5 3 2 0 12 9 7 6 4 3 3 4 3 3 4 4 1 2 1 1 4 5 3 4 5 1 5 9 11 9 18 16 8
9 13 17 20 27 27 28 28 24 19 16 13 11 9 8 8 10 5 3 4 4 4 1 4 5 11 11 4 5 7 8 4 4 2 3 3 4 3 2 2 1 7 6 7 9 7 1 5 1 8 4 9 11 16
9 9 13 20 23 27 30 28 24 18 15 13 11 9 8 8 9 4 2 2 4 4 1 1 4 4 14 7 3 9 5 6 5 4 2 2 2 3 2 4 14 13 10 8 6 3 5 8 9 4 4 3 6 17
8 9 12 14 22 27 30 26 21 19 15 13 10 7 7 8 5 5 2 3 5 2 1 1 3 4 10 10 8 6 6 1 2 4 5 2 1 1 5 10 10 15 12 5 3 4 8 12 9 6 4 7 10 13
7 11 14 15 20 27 31 27 22 19 16 13 12 5 6 7 9 6 4 3 4 2 3 4 3 2 5 3 2 1 1 2 2 3 1 2 3 7 24 22 18 12 9 5 4 7 9 7 4 1 3 6 6 6
13 14 19 19 22 25 31 28 24 21 17 14 6 3 8 9 7 4 3 4 4 2 6 6 8 2 3 3 2 2 1 1 2 4 3 2 2 6 14 20 18 13 8 4 6 7 10 5 5 6 6 6 4 4
13 17 27 23 27 28 35 30 26 23 16 9 7 9 9 5 3 3 3 2 3 5 5 7 9 8 1 1 4 1 2 3 2 3 3 2 3 5 5 5 11 11 8 6 5 4 7 7 6 9 11 12 12 5
4 18 28 27 28 28 32 26 30 24 16 10 5 5 5 4 2 5 5 3 3 3 4 7 3 6 3 3 4 3 3 3 1 2 3 3 3 7 6 6 5 4 13 13 13 12 13 11 8 7 6 5 5 5
2 22 24 29 32 29 34 36 31 18 8 5 5 2 4 3 4 5 4 4 7 5 6 7 4 3 4 3 2 3 3 3 3 2 3 2 5 4 5 11 7 6 8 6 2 9 11 10 7 4 4 3 3 5
19 31 35 31 31 33 32 38 26 14 4 3 3 3 5 9 7 9 13 3 7 8 10 8 5 3 2 3 1 2 2 2 2 2 3 2 2 2 2 1 6 9 8 5 4 4 6 6 4 4 5 5 7 9
21 23 22 26 27 29 31 39 20 5 2 1 4 2 6 3 6 7 7 9 9 10 10 6 4 4 4 1 1 4 2 2 2 3 2 3 2 1 2 2 1 3 6 7 11 7 4 4 4 4 6 9 7 8
24 22 25 26 29 37 35 21 8 4 2 3 3 6 9 6 10 13 13 12 8 10 3 4 3 2 1 2 3 4 2 2 4 2 6 8 3 2 3 7 5 7 7 4 3 2 3 5 3 1 2 3 3 6
25 25 29 29 35 39 24 11 5 2 4 4 2 13 14 14 17 17 16 11 10 6 3 2 3 4 2 2 2 4 7 7 4 4 4 4 3 0 3 6 9 8 8 5 3 3 2 5 4 4 2 1 2 3
31 34 35 36 20 6 4 3 2 4 5 5 8 10 10 11 12 14 13 12 9 4 3 4 4 2 2 3 8 11 8 5 5 6 8 6 3 3 5 8 9 6 6 4 4 3 3 2 2 3 3 1 4 6
29 28 16 8 4 1 5 4 1 2 3 3 1 4 5 6 8 7 7 8 8 4 2 3 2 4 2 2 13 9 2 3 5 7 9 5 6 6 9 9 4 4 4 4 4 5 4 4 5 4 7 6 7 7
17 15 14 9 9 9 5 4 1 2 3 4 4 4 3 2 3 6 6 4 1 1 4 6 14 8 5 3 6 6 2 5 3 5 6 9 6 6 4 3 0 4 4 3 5 7 4 3 6 5 6 9 9 15
13 11 12 10 7 6 4 5 3 3 3 3 5 5 4 3 4 4 4 3 2 3 9 12 9 11 10 10 8 7 7 9 9 7 5 3 4 4 3 2 3 4 3 2 2 5 6 7 8 10 11 10 8 8
6 8 6 6 4 5 3 4 4 5 3 5 2 2 2 1 3 3 1 2 1 7 12 9 9 8 7 6 4 3 3 6 8 6 6 5 3 2 2 3 6 9 7 6 10 12 14 14 10 7 5 2 1 3
4 3 3 3 3 1 2 4 4 4 3 3 2 1 1 2 5 1 0 3 4 13 12 11 7 5 6 9 5 6 5 4 6 8 9 8 6 6 9 10 8 9 12 14 11 9 5 3 4 2 2 2 6 5
4 4 3 3 2 2 3 2 3 2 2 1 1 2 3 4 2 1 3 2 7 10 9 10 6 2 6 3 3 1 0 2 5 6 8 8 11 14 14 12 9 7 5 2 3 2 2 1 2 3 1 2 6 3
4 4 3 4 4 3 2 2 3 4 3 3 4 3 4 3 2 2 0 8 11 10 8 6 5 5 5 3 2 5 11 12 10 11 11 11 10 8 8 7 6 7 3 1 4 3 5 2 4 3 2 5 4 3
3 3 4 2 3 1 5 4 6 4 4 5 3 2 2 2 1 1 5 4 3 3 4 5 5 6 6 5 6 16 15 10 7 5 4 6 7 7 5 4 4 6 5 8 7 4 3 6 5 4 6 3 2 6
2 2 3 10 6 14 7 2 2 3 2 7 1 3 1 2 1 2 3 3 3 4 2 3 4 5 5 8 10 14 12 9 7 5 4 4 6 7 8 7 6 8 4 9 7 7 8 7 6 4 2 2 4 1
2 3 5 5 5 5 6 4 4 4 6 4 2 2 2 2 3 1 2 4 4 8 7 4 2 4 11 12 12 10 8 6 4 3 2 3 8 9 9 10 9 8 10 6 8 5 4 5 5 5 3 3 4 6
3 5 3 3 3 2 5 6 4 4 4 4 2 2 3 3 1 5 8 8 7 9 9 9 6 7 11 10 10 7 7 3 7 6 3 4 6 7 7 12 13 12 10 14 13 6 6 6 4 4 8 7 7 6
3 1 2 1 3 4 5 5 4 0 1 2 2 2 3 1 2 4 3 3 4 5 10 6 7 7 11 10 7 8 7 4 2 2 5 8 9 5 7 4 8 15 20 21 15 16 15 12 12 12 6 3 7 9
2 2 2 2 2 3 3 2 3 3 1 1 1 2 2 1 2 3 5 4 6 9 9 7 7 5 8 7 6 6 4 4 12 10 12 12 8 9 11 12 8 7 9 11 11 9 4 11 12 6 5 6 6 6
2 3 3 4 2 1 3 3 4 5 3 2 3 3 2 1 3 3 9 8 8 9 8 5 3 4 5 10 7 6 8 11 12 10 6 11 13 10 10 13 14 14 12 16 16 14 14 12 16 12 10 7 7 7
Wind_Direction
251 237 227 220 223 230 229 230 233 242 246 257 265 266 268 273 246 198 128 120 355 277 283 7 38 43 36 40 94 333 46 13 25 57 72 299 9 328 18 14 320 89 29 7 66 154 304 350 14 61 290 312 327 283
245 240 230 222 222 226 223 221 226 233 240 246 252 254 252 261 235 180 176 215 257 253 256 296 321 298 348 75 52 47 109 61 42 81 26 356 346 4 43 349 352 38 155 177 66 108 120 88 101 44 8 349 347 315
245 236 236 223 218 221 218 217 218 222 233 239 239 242 237 245 228 192 171 337 221 275 277 269 259 126 118 158 82 119 108 63 28 27 192 233 294 124 292 255 43 43 134 84 119 60 311 69 86 19 18 0 334 314
239 240 238 232 216 218 214 213 214 216 223 233 234 232 225 230 225 194 153 80 85 314 261 348 162 213 174 190 193 123 106 163 317 297 251 231 188 191 237 206 112 192 54 45 83 273 3 353 359 9 349 321 316 296
253 240 238 233 215 213 210 209 207 216 218 226 226 225 219 215 214 193 159 179 95 5 270 289 216 207 234 210 143 145 238 317 322 306 30 255 261 66 318 78 32 30 173 110 209 240 211 288 344 360 6 9 337 277
273 247 231 223 208 204 205 201 205 207 213 220 218 218 213 199 187 160 185 204 213 243 281 327 274 193 193 194 183 188 251 259 260 299 265 271 342 41 77 29 334 109 103 126 174 158 42 3 25 24 55 24 29 29
278 241 235 214 209 204 197 196 205 202 208 212 210 208 207 197 185 181 160 148 202 199 244 324 324 179 184 219 213 226 242 254 232 234 245 285 337 338 94 150 153 138 123 124 150 135 284 315 104 28 23 33 29 33
281 244 223 212 202 198 195 194 200 193 201 205 202 198 193 193 190 200 177 148 163 170 220 164 274 154 203 194 226 222 229 230 241 232 244 239 337 53 30 230 153 158 146 166 193 234 270 316 347 327 350 351 349 60
271 244 197 206 209 196 190 189 179 192 193 194 185 172 165 164 157 151 126 160 167 169 197 264 155 222 175 218 229 229 220 124 232 186 232 148 303 83 311 323 179 177 184 173 200 283 275 286 291 299 333 17 19 81
259 224 201 212 211 194 185 182 178 181 184 176 156 149 149 155 139 147 141 177 183 204 226 232 271 269 209 204 184 324 173 159 53 267 296 80 108 26 46 59 80 99 77 53 52 32 37 45 55 46 13 46 40 100
262 233 199 196 195 195 180 182 175 173 169 158 152 118 145 148 158 174 193 182 180 236 214 221 226 224 20 121 177 56 163 20 65 272 102 350 24 340 33 53 61 75 80 77 61 43 44 49 46 60 68 68 89 117
279 228 194 202 184 191 184 178 170 167 156 148 130 126 144 175 185 180 200 222 171 215 208 181 200 194 230 68 97 73 109 45 246 312 75 55 254 331 7 29 52 55 76 103 42 29 24 35 36 68 68 64 60 61
247 183 180 197 181 186 180 178 171 162 144 135 129 148 180 179 103 185 185 221 210 216 183 149 174 150 129 88 77 83 77 225 99 70 161 209 295 8 15 343 293 112 77 69 77 85 93 91 82 80 64 42 19 36
161 177 170 184 178 178 173 164 169 160 153 151 156 117 164 210 216 204 189 193 209 183 156 116 105 111 116 71 126 109 227 69 350 198 198 270 356 358 67 34 48 50 47 75 133 74 93 96 90 65 50 20 340 322
152 143 153 157 162 157 159 163 169 165 132 130 168 197 215 230 253 245 247 229 115 136 160 110 67 75 24 104 102 121 124 225 191 199 214 192 79 127 218 64 77 58 40 25 356 14 23 35 57 54 29 355 333 321
142 139 145 159 163 164 167 162 166 122 100 199 232 272 225 181 278 259 162 99 86 120 106 91 86 56 5 93 141 193 181 95 227 235 190 154 172 211 49 227 291 22 29 25 5 13 13 327 331 333 320 326 330 327
140 135 141 146 160 150 149 146 111 71 5 286 273 269 256 107 84 84 123 89 118 98 88 104 82 147 77 313 51 9 101 258 321 190 149 136 152 43 335 347 348 319 316 342 354 358 316 332 17 53 25 46 42 11
132 141 145 134 142 140 114 106 123 140 258 262 319 21 88 100 100 96 93 95 94 81 78 125 96 62 105 123 166 224 222 234 257 217 214 186 218 185 295 290 309 313 313 315 285 229 171 159 133 108 52 34 332 346
127 139 137 127 116 107 102 74 83 179 259 332 15 10 74 84 107 97 101 97 76 107 110 88 82 128 209 200 201 226 261 245 215 252 238 224 243 242 278 288 288 273 272 254 225 208 141 145 163 136 143 114 117 124
108 109 112 86 55 123 117 84 94 61 7 4 160 56 79 97 110 103 111 92 72 119 95 77 141 149 146 10 200 214 238 328 266 244 192 205 201 254 293 313 282 245 224 214 191 161 130 81 108 113 148 137 133 128
107 83 68 76 59 55 81 112 35 33 6 69 81 52 83 139 96 103 72 61 94 131 94 146 158 160 144 144 170 194 171 257 256 193 195 194 227 274 276 316 214 204 216 187 173 160 159 186 143 142 124 126 98 114
91 72 67 57 48 39 59 53 15 13 45 25 37 42 35 61 54 65 37 71 90 112 138 153 156 163 159 163 171 207 253 267 249 247 253 271 231 228 231 259 217 182 176 158 187 187 163 147 146 130 119 110 112 117
71 35 43 38 33 41 34 30 40 31 52 4 59 50 3 96 162 146 68 140 109 176 168 161 168 162 181 198 216 280 310 231 228 215 231 251 235 226 202 155 134 125 110 105 115 123 125 124 124 111 86 68 148 135
24 62 57 46 28 351 65 40 25 23 40 39 25 333 204 181 149 98 275 168 143 169 161 160 166 177 191 184 217 258 266 254 238 236 222 240 228 181 149 143 131 122 124 117 119 114 101 65 24 46 98 24 359 342
24 38 40 353 34 35 54 19 342 356 123 191 217 259 250 165 119 188 183 179 116 159 169 150 150 154 147 188 197 245 179 139 133 130 136 142 141 137 139 139 138 139 145 141 80 78 126 120 103 355 349 342 337 40
38 39 42 31 34 46 40 209 219 212 169 191 227 226 189 150 126 229 91 120 117 131 143 155 183 201 192 207 237 165 141 137 130 130 134 139 160 171 176 179 179 190 195 277 152 134 164 213 313 308 311 304 299 260
22 80 294 268 151 147 296 277 246 220 207 210 174 134 142 117 128 77 122 117 170 187 215 236 252 222 211 211 182 165 159 165 163 152 156 171 176 187 226 225 190 167 202 212 223 220 252 287 264 259 301 304 346 352
294 290 295 317 235 210 224 231 65 57 37 355 93 151 125 57 162 107 104 98 117 168 224 278 229 215 193 167 152 170 188 187 189 187 181 205 223 221 234 227 196 201 196 201 230 258 240 249 268 268 257 273 171 121
267 316 324 331 342 343 23 37 60 49 8 20 49 42 68 84 114 140 243 248 268 228 234 244 245 195 182 180 168 187 190 196 232 254 246 257 267 248 247 243 245 247 238 215 203 285 334 232 248 263 279 253 292 319
3 349 358 324 341 320 40 39 47 32 17 45 84 112 148 140 258 279 274 258 246 260 260 212 214 213 190 187 178 186 196 256 266 240 263 279 356 344 286 234 229 233 235 240 242 243 308 304 274 272 277 272 296 261
289 280 277 266 260 266 280 304 323 12 345 7 177 193 138 140 281 331 304 247 219 200 181 185 191 202 209 205 244 313 357 209 155 179 276 299 290 229 340 5 242 241 245 233 258 249 265 258 259 265 237 289 271 254
251 248 247 263 272 65 101 103 115 118 166 141 77 158 140 78 79 55 58 97 129 164 167 158 162 164 197 213 287 315 305 297 185 246 277 292 287 264 258 247 254 224 206 209 239 217 257 282 241 229 213 248 256 266
241 225 260 285 274 190 218 171 183 165 143 182 177 193 324 136 93 121 101 88 98 145 160 175 196 213 252 261 266 209 214 224 236 259 268 311 330 304 265 247 250 250 246 253 256 241 234 284 227 232 254 257 267 254